{"data":{"norad_id":56731,"intl_designator":"2023-069A","name":"2023-069A","alt_names":[],"object_type":"PAYLOAD","status":"ACTIVE","operator":null,"country":"PRC","launch_date":"2023-05-21","launch_site_code":"JSC","launch_vehicle":null,"mission":null,"orbit_class":"UNKNOWN","rcs_meters":null,"size_class":null,"mass_kg":null,"dimensions":null,"purposes":[],"wikipedia_slug":null,"has_3d_model":false,"image_url":null,"decayed_at":null,"tle_current":{"epoch":"2026-09-21T14:54:36.345600Z","epoch_age_seconds":99939,"freshness":"FRESH","line1":"1 56731U 23069A   26264.62125400  .00005984  00000+0  13766-3 0  9993","line2":"2 56731  40.9960 322.7648 0006481 268.4723  91.5359 15.43082808187945","mean_motion":15.43082808,"eccentricity":0.0006481,"inclination_deg":40.996,"raan_deg":322.7648,"arg_perigee_deg":268.4723,"mean_anomaly_deg":91.5359,"bstar":0.00013766,"rev_number":18794,"period_min":93.3196839816,"perigee_km":432.60029168072,"apogee_km":441.43409454583,"semimajor_km":6815.1541931133,"source":"CELESTRAK","updated_at":"2026-09-22T09:00:25.903765Z"}}}